Time,TemperatureF,DewpointF,PressureIn,WindDirection,WindDirectionDegrees,WindSpeedMPH,WindSpeedGustMPH,Humidity,HourlyPrecipIn,Conditions,Clouds,dailyrainin,SoftwareType,DateUTC
2013-03-10 00:00:00,61.9,53.8,30.13,ESE,112,2.0,5.0,75,0.00,,,0.00,meteohub,2013-03-10 05:00:00,
2013-03-10 00:01:00,61.9,53.8,30.13,ESE,112,2.0,5.0,75,0.00,,,0.00,meteohub,2013-03-10 05:01:00,
2013-03-10 00:02:00,61.9,53.8,30.13,ESE,112,3.0,5.0,75,0.00,,,0.00,meteohub,2013-03-10 05:02:00,
2013-03-10 00:07:00,61.7,53.8,30.12,ESE,112,2.0,5.0,75,0.00,,,0.00,meteohub,2013-03-10 05:07:00,
2013-03-10 00:12:00,61.5,53.2,30.12,ESE,107,2.0,4.0,74,0.00,,,0.00,meteohub,2013-03-10 05:12:00,
2013-03-10 00:17:00,61.5,53.2,30.12,ESE,117,3.0,5.0,74,0.00,,,0.00,meteohub,2013-03-10 05:17:00,
2013-03-10 00:22:00,61.3,53.1,30.13,ESE,116,3.0,5.0,74,0.00,,,0.00,meteohub,2013-03-10 05:22:00,
2013-03-10 00:27:00,61.3,52.7,30.12,ESE,115,3.0,5.0,73,0.00,,,0.00,meteohub,2013-03-10 05:27:00,
2013-03-10 00:32:00,61.3,52.7,30.12,ESE,107,4.0,7.0,73,0.00,,,0.00,meteohub,2013-03-10 05:32:00,
2013-03-10 00:38:00,61.2,52.5,30.12,East,101,3.0,8.0,73,0.00,,,0.00,meteohub,2013-03-10 05:38:00,
2013-03-10 00:43:00,61.2,52.5,30.12,East,101,3.0,8.0,73,0.00,,,0.00,meteohub,2013-03-10 05:43:00,
2013-03-10 00:48:00,61.0,52.3,30.12,East,100,3.0,8.0,73,0.00,,,0.00,meteohub,2013-03-10 05:48:00,
2013-03-10 00:53:00,61.0,52.3,30.12,East,82,5.0,7.0,73,0.00,,,0.00,meteohub,2013-03-10 05:53:00,
2013-03-10 00:58:00,60.8,52.2,30.11,East,82,6.0,6.0,73,0.00,,,0.00,meteohub,2013-03-10 05:58:00,
2013-03-10 01:03:00,60.6,52.0,30.11,East,83,6.0,6.0,73,0.00,,,0.00,meteohub,2013-03-10 06:03:00,
2013-03-10 01:08:00,60.6,52.0,30.11,East,82,3.0,7.0,73,0.00,,,0.00,meteohub,2013-03-10 06:08:00,
2013-03-10 01:13:00,60.6,52.0,30.11,East,82,3.0,7.0,73,0.00,,,0.00,meteohub,2013-03-10 06:13:00,
2013-03-10 01:18:00,60.4,52.2,30.11,East,95,5.0,7.0,74,0.00,,,0.00,meteohub,2013-03-10 06:18:00,
2013-03-10 01:23:00,60.4,52.2,30.11,East,80,3.0,7.0,74,0.00,,,0.00,meteohub,2013-03-10 06:23:00,
2013-03-10 01:28:00,60.3,52.3,30.11,East,81,5.0,6.0,75,0.00,,,0.00,meteohub,2013-03-10 06:28:00,
2013-03-10 01:33:00,60.3,52.3,30.11,East,90,6.0,6.0,75,0.00,,,0.00,meteohub,2013-03-10 06:33:00,
2013-03-10 01:38:00,60.1,52.5,30.11,ENE,75,3.0,7.0,76,0.00,,,0.00,meteohub,2013-03-10 06:38:00,
2013-03-10 01:43:00,60.1,52.5,30.11,ESE,113,4.0,7.0,76,0.00,,,0.00,meteohub,2013-03-10 06:43:00,
2013-03-10 01:49:00,59.9,52.7,30.10,East,95,5.0,6.0,77,0.00,,,0.00,meteohub,2013-03-10 06:49:00,
2013-03-10 01:54:00,59.9,52.7,30.10,East,94,3.0,6.0,77,0.00,,,0.00,meteohub,2013-03-10 06:54:00,
2013-03-10 01:59:00,59.7,52.9,30.10,East,98,1.0,6.0,78,0.00,,,0.00,meteohub,2013-03-10 06:59:00,
2013-03-10 03:04:00,59.7,52.9,30.11,East,98,2.0,-999.0,78,-99.99,,,0.00,meteohub,2013-03-10 07:04:00,
2013-03-10 03:09:00,59.5,53.1,30.10,East,98,3.0,-999.0,79,-99.99,,,0.00,meteohub,2013-03-10 07:09:00,
2013-03-10 03:14:00,59.5,53.1,30.11,East,98,3.0,-999.0,79,-99.99,,,0.00,meteohub,2013-03-10 07:14:00,
2013-03-10 03:19:00,59.5,53.4,30.11,East,98,2.0,-999.0,80,-99.99,,,0.00,meteohub,2013-03-10 07:19:00,
2013-03-10 03:24:00,59.4,53.2,30.11,East,98,2.0,-999.0,80,-99.99,,,0.00,meteohub,2013-03-10 07:24:00,
2013-03-10 03:29:00,59.4,53.2,30.11,East,98,1.0,-999.0,80,-99.99,,,0.00,meteohub,2013-03-10 07:29:00,
2013-03-10 03:34:00,59.2,53.4,30.10,East,98,1.0,-999.0,81,-99.99,,,0.00,meteohub,2013-03-10 07:34:00,
2013-03-10 03:39:00,59.2,53.4,30.10,East,98,2.0,-999.0,81,-99.99,,,0.00,meteohub,2013-03-10 07:39:00,
2013-03-10 03:44:00,59.2,53.4,30.09,East,98,2.0,-999.0,81,-99.99,,,0.00,meteohub,2013-03-10 07:44:00,
2013-03-10 03:49:00,59.2,53.6,30.09,East,98,3.0,-999.0,82,-99.99,,,0.00,meteohub,2013-03-10 07:49:00,
2013-03-10 03:54:00,59.0,53.6,30.09,East,98,2.0,-999.0,82,-99.99,,,0.00,meteohub,2013-03-10 07:54:00,
2013-03-10 03:59:00,59.0,53.6,30.09,East,98,3.0,-999.0,82,-99.99,,,0.00,meteohub,2013-03-10 07:59:00,
2013-03-10 04:04:00,59.0,53.6,30.09,East,98,1.0,-999.0,82,-99.99,,,0.00,meteohub,2013-03-10 08:04:00,
2013-03-10 04:10:00,58.8,53.6,30.09,East,98,2.0,-999.0,83,-99.99,,,0.00,meteohub,2013-03-10 08:10:00,
2013-03-10 04:15:00,58.8,53.6,30.08,East,98,3.0,-999.0,83,-99.99,,,0.00,meteohub,2013-03-10 08:15:00,
2013-03-10 04:20:00,58.8,53.6,30.09,East,98,3.0,-999.0,83,-99.99,,,0.00,meteohub,2013-03-10 08:20:00,
2013-03-10 04:25:00,58.6,53.4,30.09,East,98,2.0,-999.0,83,-99.99,,,0.00,meteohub,2013-03-10 08:25:00,
2013-03-10 04:30:00,58.6,53.4,30.09,East,98,2.0,-999.0,83,-99.99,,,0.00,meteohub,2013-03-10 08:30:00,
2013-03-10 04:35:00,58.5,53.6,30.09,East,98,2.0,-999.0,84,-99.99,,,0.00,meteohub,2013-03-10 08:35:00,
2013-03-10 04:40:00,58.5,53.6,30.09,East,98,2.0,-999.0,84,-99.99,,,0.00,meteohub,2013-03-10 08:40:00,
2013-03-10 04:45:00,58.3,53.4,30.09,East,98,2.0,-999.0,84,-99.99,,,0.00,meteohub,2013-03-10 08:45:00,
2013-03-10 04:50:00,57.9,53.1,30.09,East,98,2.0,-999.0,84,-99.99,,,0.00,meteohub,2013-03-10 08:50:00,
2013-03-10 04:55:00,57.7,53.2,30.09,East,98,2.0,-999.0,85,-99.99,,,0.00,meteohub,2013-03-10 08:55:00,
2013-03-10 05:00:00,57.7,53.2,30.09,East,98,2.0,-999.0,85,-99.99,,,0.00,meteohub,2013-03-10 09:00:00,
2013-03-10 05:05:00,57.7,53.2,30.08,East,98,2.0,-999.0,85,-99.99,,,0.00,meteohub,2013-03-10 09:05:00,
2013-03-10 05:10:00,57.7,53.2,30.08,East,98,2.0,-999.0,85,-99.99,,,0.00,meteohub,2013-03-10 09:10:00,
2013-03-10 05:15:00,57.7,53.2,30.09,East,98,3.0,-999.0,85,-99.99,,,0.00,meteohub,2013-03-10 09:15:00,
2013-03-10 05:20:00,57.7,53.2,30.08,East,98,2.0,-999.0,85,-99.99,,,0.00,meteohub,2013-03-10 09:20:00,
2013-03-10 05:26:00,57.7,53.2,30.08,East,98,2.0,-999.0,85,-99.99,,,0.00,meteohub,2013-03-10 09:26:00,
2013-03-10 05:31:00,57.9,53.8,30.08,East,98,2.0,-999.0,86,-99.99,,,0.00,meteohub,2013-03-10 09:31:00,
2013-03-10 05:36:00,57.9,53.8,30.08,East,98,2.0,-999.0,86,-99.99,,,0.00,meteohub,2013-03-10 09:36:00,
2013-03-10 05:41:00,57.9,53.8,30.08,East,98,2.0,-999.0,86,-99.99,,,0.00,meteohub,2013-03-10 09:41:00,
2013-03-10 05:46:00,57.9,53.8,30.08,East,98,2.0,-999.0,86,-99.99,,,0.00,meteohub,2013-03-10 09:46:00,
2013-03-10 05:51:00,57.9,53.8,30.08,East,98,2.0,-999.0,86,-99.99,,,0.00,meteohub,2013-03-10 09:51:00,
2013-03-10 05:56:00,57.7,53.6,30.09,East,98,1.0,-999.0,86,-99.99,,,0.00,meteohub,2013-03-10 09:56:00,
2013-03-10 06:01:00,57.7,53.6,30.09,East,98,2.0,-999.0,86,-99.99,,,0.00,meteohub,2013-03-10 10:01:00,
2013-03-10 06:06:00,57.7,53.6,30.09,East,98,2.0,-999.0,86,-99.99,,,0.00,meteohub,2013-03-10 10:06:00,
2013-03-10 06:11:00,57.7,53.6,30.09,East,98,1.0,-999.0,86,-99.99,,,0.00,meteohub,2013-03-10 10:11:00,
2013-03-10 06:16:00,57.7,54.0,30.09,East,98,2.0,-999.0,87,-99.99,,,0.00,meteohub,2013-03-10 10:16:00,
2013-03-10 06:21:00,57.7,54.0,30.09,East,98,2.0,-999.0,87,-99.99,,,0.00,meteohub,2013-03-10 10:21:00,
2013-03-10 06:26:00,57.6,53.8,30.09,East,98,1.0,-999.0,87,-99.99,,,0.00,meteohub,2013-03-10 10:26:00,
2013-03-10 06:31:00,57.6,53.8,30.09,East,98,1.0,-999.0,87,-99.99,,,0.00,meteohub,2013-03-10 10:31:00,
2013-03-10 06:37:00,57.6,53.8,30.09,East,98,1.0,-999.0,87,-99.99,,,0.00,meteohub,2013-03-10 10:37:00,
2013-03-10 06:42:00,57.6,53.8,30.09,East,98,1.0,-999.0,87,-99.99,,,0.00,meteohub,2013-03-10 10:42:00,
2013-03-10 06:47:00,57.4,53.6,30.09,East,98,1.0,-999.0,87,-99.99,,,0.00,meteohub,2013-03-10 10:47:00,
2013-03-10 06:52:00,57.4,53.6,30.09,East,98,0.0,-999.0,87,-99.99,,,0.00,meteohub,2013-03-10 10:52:00,
2013-03-10 06:57:00,57.2,53.4,30.09,East,98,1.0,-999.0,87,-99.99,,,0.00,meteohub,2013-03-10 10:57:00,
2013-03-10 07:02:00,57.2,53.4,30.09,East,98,1.0,-999.0,87,-99.99,,,0.00,meteohub,2013-03-10 11:02:00,
2013-03-10 07:07:00,57.0,53.4,30.09,East,98,0.0,-999.0,88,-99.99,,,0.00,meteohub,2013-03-10 11:07:00,
2013-03-10 07:12:00,57.0,53.2,30.10,East,98,1.0,-999.0,87,-99.99,,,0.00,meteohub,2013-03-10 11:12:00,
2013-03-10 07:17:00,56.8,53.2,30.10,East,98,0.0,2.0,88,-99.99,,,0.00,meteohub,2013-03-10 11:17:00,
2013-03-10 07:22:00,56.8,53.2,30.10,East,98,1.0,2.0,88,-99.99,,,0.00,meteohub,2013-03-10 11:22:00,
2013-03-10 07:27:00,56.7,53.4,30.10,East,98,0.0,1.0,89,-99.99,,,0.00,meteohub,2013-03-10 11:27:00,
2013-03-10 07:32:00,56.7,53.4,30.11,East,98,1.0,1.0,89,-99.99,,,0.00,meteohub,2013-03-10 11:32:00,
2013-03-10 07:37:00,56.7,53.4,30.11,East,98,1.0,1.0,89,-99.99,,,0.00,meteohub,2013-03-10 11:37:00,
2013-03-10 07:42:00,56.7,53.4,30.11,East,98,1.0,1.0,89,-99.99,,,0.00,meteohub,2013-03-10 11:42:00,
2013-03-10 07:47:00,56.8,53.6,30.11,East,98,1.0,2.0,89,-99.99,,,0.00,meteohub,2013-03-10 11:47:00,
2013-03-10 07:52:00,56.8,53.6,30.11,East,98,1.0,2.0,89,-99.99,,,0.00,meteohub,2013-03-10 11:52:00,
2013-03-10 07:57:00,56.8,53.6,30.11,East,98,1.0,2.0,89,-99.99,,,0.00,meteohub,2013-03-10 11:57:00,
2013-03-10 08:02:00,57.0,53.8,30.11,East,98,1.0,2.0,89,0.00,,,0.00,meteohub,2013-03-10 12:02:00,
2013-03-10 08:07:00,57.0,53.8,30.11,East,98,1.0,2.0,89,0.00,,,0.00,meteohub,2013-03-10 12:07:00,
2013-03-10 08:12:00,57.4,54.1,30.11,East,98,2.0,2.0,89,0.00,,,0.00,meteohub,2013-03-10 12:12:00,
2013-03-10 08:17:00,57.6,54.3,30.12,East,98,0.0,2.0,89,0.00,,,0.00,meteohub,2013-03-10 12:17:00,
2013-03-10 08:23:00,57.7,54.1,30.12,East,98,0.0,2.0,88,0.00,,,0.00,meteohub,2013-03-10 12:23:00,
2013-03-10 08:28:00,57.9,54.3,30.12,East,98,1.0,2.0,88,0.00,,,0.00,meteohub,2013-03-10 12:28:00,
2013-03-10 08:33:00,58.1,54.5,30.12,East,98,0.0,2.0,88,0.00,,,0.00,meteohub,2013-03-10 12:33:00,
2013-03-10 08:38:00,58.3,54.5,30.12,East,98,0.0,2.0,87,0.00,,,0.00,meteohub,2013-03-10 12:38:00,
2013-03-10 08:43:00,58.6,54.9,30.12,East,98,2.0,2.0,87,0.00,,,0.00,meteohub,2013-03-10 12:43:00,
2013-03-10 08:48:00,58.8,54.7,30.12,East,98,2.0,2.0,86,0.00,,,0.00,meteohub,2013-03-10 12:48:00,
2013-03-10 08:53:00,59.0,54.5,30.12,East,98,1.0,3.0,85,0.00,,,0.00,meteohub,2013-03-10 12:53:00,
2013-03-10 08:58:00,59.4,54.9,30.12,East,98,0.0,3.0,85,0.00,,,0.00,meteohub,2013-03-10 12:58:00,
2013-03-10 09:03:00,59.5,54.7,30.12,East,98,2.0,3.0,84,0.00,,,0.00,meteohub,2013-03-10 13:03:00,
2013-03-10 09:08:00,59.9,55.0,30.12,East,98,1.0,3.0,84,0.00,,,0.00,meteohub,2013-03-10 13:08:00,
2013-03-10 09:13:00,60.4,55.2,30.12,East,98,2.0,5.0,83,0.00,,,0.00,meteohub,2013-03-10 13:13:00,
2013-03-10 09:18:00,61.2,55.2,30.12,East,86,3.0,5.0,81,0.00,,,0.00,meteohub,2013-03-10 13:18:00,
2013-03-10 09:23:00,62.1,55.8,30.12,East,86,2.0,6.0,80,0.00,,,0.00,meteohub,2013-03-10 13:23:00,
2013-03-10 09:29:00,62.8,55.4,30.12,East,86,5.0,7.0,77,0.00,,,0.00,meteohub,2013-03-10 13:29:00,
2013-03-10 09:34:00,63.0,55.2,30.12,East,84,5.0,7.0,76,0.00,,,0.00,meteohub,2013-03-10 13:34:00,
2013-03-10 09:39:00,63.1,55.0,30.12,ESE,113,5.0,6.0,75,0.00,,,0.00,meteohub,2013-03-10 13:39:00,
2013-03-10 09:44:00,63.3,54.9,30.12,SE,130,5.0,7.0,74,0.00,,,0.00,meteohub,2013-03-10 13:44:00,
2013-03-10 09:49:00,63.5,55.0,30.12,ENE,67,5.0,7.0,74,0.00,,,0.00,meteohub,2013-03-10 13:49:00,
2013-03-10 09:54:00,63.9,55.0,30.12,East,93,5.0,7.0,73,0.00,,,0.00,meteohub,2013-03-10 13:54:00,
2013-03-10 09:59:00,64.6,55.4,30.12,East,94,6.0,9.0,72,0.00,,,0.00,meteohub,2013-03-10 13:59:00,
2013-03-10 10:04:00,65.1,55.4,30.12,East,79,6.0,9.0,71,0.00,,,0.00,meteohub,2013-03-10 14:04:00,
2013-03-10 10:09:00,66.0,55.9,30.12,ESE,123,7.0,9.0,70,0.00,,,0.00,meteohub,2013-03-10 14:09:00,
2013-03-10 10:14:00,67.3,56.3,30.12,ESE,109,4.0,9.0,68,0.00,,,0.00,meteohub,2013-03-10 14:14:00,
2013-03-10 10:19:00,68.5,56.3,30.12,ESE,112,3.0,9.0,65,0.00,,,0.00,meteohub,2013-03-10 14:19:00,
2013-03-10 10:24:00,69.6,56.5,30.13,ESE,107,5.0,9.0,63,0.00,,,0.00,meteohub,2013-03-10 14:24:00,
2013-03-10 10:29:00,68.9,55.8,30.12,East,94,5.0,9.0,63,0.00,,,0.00,meteohub,2013-03-10 14:29:00,
2013-03-10 10:34:00,68.4,55.8,30.12,ESE,114,5.0,9.0,64,0.00,,,0.00,meteohub,2013-03-10 14:34:00,
2013-03-10 10:39:00,68.0,55.4,30.12,ESE,104,5.0,9.0,64,0.00,,,0.00,meteohub,2013-03-10 14:39:00,
2013-03-10 10:45:00,67.8,55.6,30.12,East,97,3.0,8.0,65,0.00,,,0.00,meteohub,2013-03-10 14:45:00,
2013-03-10 10:50:00,68.2,55.9,30.12,ESE,113,7.0,9.0,65,0.00,,,0.00,meteohub,2013-03-10 14:50:00,
2013-03-10 10:55:00,68.9,56.3,30.12,East,93,5.0,9.0,64,0.00,,,0.00,meteohub,2013-03-10 14:55:00,
2013-03-10 11:00:00,69.3,56.1,30.12,East,95,5.0,9.0,63,0.00,,,0.00,meteohub,2013-03-10 15:00:00,
2013-03-10 11:05:00,70.2,56.5,30.11,East,99,6.0,9.0,62,0.00,,,0.00,meteohub,2013-03-10 15:05:00,
2013-03-10 11:10:00,71.8,56.7,30.11,ESE,123,5.0,9.0,59,0.00,,,0.00,meteohub,2013-03-10 15:10:00,
2013-03-10 11:15:00,72.3,56.7,30.10,ESE,107,8.0,10.0,58,0.00,,,0.00,meteohub,2013-03-10 15:15:00,
2013-03-10 11:20:00,72.1,56.5,30.09,ESE,111,5.0,10.0,58,0.00,,,0.00,meteohub,2013-03-10 15:20:00,
2013-03-10 11:25:00,72.3,56.7,30.09,ESE,123,8.0,10.0,58,0.00,,,0.00,meteohub,2013-03-10 15:25:00,
2013-03-10 11:30:00,72.7,56.5,30.09,ENE,69,8.0,12.0,57,0.00,,,0.00,meteohub,2013-03-10 15:30:00,
2013-03-10 11:35:00,72.5,56.8,30.09,East,90,5.0,12.0,58,0.00,,,0.00,meteohub,2013-03-10 15:35:00,
2013-03-10 11:40:00,73.2,56.7,30.08,ESE,104,7.0,12.0,56,0.00,,,0.00,meteohub,2013-03-10 15:40:00,
2013-03-10 11:46:00,73.0,56.5,30.08,ESE,119,5.0,11.0,56,0.00,,,0.00,meteohub,2013-03-10 15:46:00,
2013-03-10 11:51:00,72.3,56.3,30.08,ESE,115,4.0,13.0,57,0.00,,,0.00,meteohub,2013-03-10 15:51:00,
2013-03-10 11:56:00,72.9,56.3,30.08,East,91,5.0,13.0,56,0.00,,,0.00,meteohub,2013-03-10 15:56:00,
2013-03-10 12:01:00,72.9,55.8,30.07,East,89,6.0,13.0,55,0.00,,,0.00,meteohub,2013-03-10 16:01:00,
2013-03-10 12:06:00,73.2,56.1,30.08,ESE,119,4.0,13.0,55,0.00,,,0.00,meteohub,2013-03-10 16:06:00,
2013-03-10 12:11:00,73.2,56.1,30.08,ESE,103,5.0,14.0,55,0.00,,,0.00,meteohub,2013-03-10 16:11:00,
2013-03-10 12:17:00,73.9,56.3,30.07,ESE,106,7.0,14.0,54,0.00,,,0.00,meteohub,2013-03-10 16:17:00,
2013-03-10 12:22:00,74.7,56.5,30.07,East,99,6.0,14.0,53,0.00,,,0.00,meteohub,2013-03-10 16:22:00,
2013-03-10 12:27:00,74.7,56.5,30.07,ESE,121,4.0,10.0,53,0.00,,,0.00,meteohub,2013-03-10 16:27:00,
2013-03-10 12:32:00,75.0,56.7,30.08,SSE,161,7.0,10.0,53,0.00,,,0.00,meteohub,2013-03-10 16:32:00,
2013-03-10 12:37:00,74.7,56.5,30.07,ESE,115,7.0,10.0,53,0.00,,,0.00,meteohub,2013-03-10 16:37:00,
2013-03-10 12:42:00,74.1,55.9,30.08,ESE,119,5.0,10.0,53,0.00,,,0.00,meteohub,2013-03-10 16:42:00,
2013-03-10 12:47:00,74.7,56.5,30.08,ESE,103,3.0,13.0,53,0.00,,,0.00,meteohub,2013-03-10 16:47:00,
2013-03-10 12:52:00,75.0,56.1,30.08,SSE,149,3.0,13.0,52,0.00,,,0.00,meteohub,2013-03-10 16:52:00,
2013-03-10 12:57:00,75.2,56.3,30.08,SSE,154,3.0,13.0,52,0.00,,,0.00,meteohub,2013-03-10 16:57:00,
2013-03-10 13:02:00,75.6,56.1,30.08,SE,137,6.0,10.0,51,0.00,,,0.00,meteohub,2013-03-10 17:02:00,
2013-03-10 13:07:00,75.6,56.1,30.08,ENE,75,5.0,10.0,51,0.00,,,0.00,meteohub,2013-03-10 17:07:00,
2013-03-10 13:12:00,75.6,56.1,30.08,ESE,120,3.0,11.0,51,0.00,,,0.00,meteohub,2013-03-10 17:12:00,
2013-03-10 13:17:00,76.3,55.8,30.08,ESE,115,3.0,11.0,49,0.00,,,0.00,meteohub,2013-03-10 17:17:00,
2013-03-10 13:22:00,76.6,56.1,30.08,SE,127,2.0,11.0,49,0.00,,,0.00,meteohub,2013-03-10 17:22:00,
2013-03-10 13:27:00,76.6,56.1,30.08,SE,141,3.0,10.0,49,0.00,,,0.00,meteohub,2013-03-10 17:27:00,
2013-03-10 13:32:00,77.0,55.8,30.07,ESE,119,9.0,10.0,48,0.00,,,0.00,meteohub,2013-03-10 17:32:00,
2013-03-10 13:37:00,77.2,55.4,30.07,SE,125,4.0,10.0,47,0.00,,,0.00,meteohub,2013-03-10 17:37:00,
2013-03-10 13:42:00,77.4,55.6,30.07,ESE,115,4.0,10.0,47,0.00,,,0.00,meteohub,2013-03-10 17:42:00,
2013-03-10 13:47:00,77.4,56.1,30.06,ESE,107,3.0,10.0,48,0.00,,,0.00,meteohub,2013-03-10 17:47:00,
2013-03-10 13:52:00,77.4,56.1,30.06,East,86,5.0,8.0,48,0.00,,,0.00,meteohub,2013-03-10 17:52:00,
2013-03-10 13:57:00,77.7,55.9,30.06,ESE,119,3.0,9.0,47,0.00,,,0.00,meteohub,2013-03-10 17:57:00,
2013-03-10 14:02:00,77.7,55.2,30.06,SE,144,5.0,9.0,46,0.00,,,0.00,meteohub,2013-03-10 18:02:00,
2013-03-10 14:07:00,77.5,55.8,30.05,East,84,7.0,8.0,47,0.00,,,0.00,meteohub,2013-03-10 18:07:00,
2013-03-10 14:12:00,77.5,55.8,30.05,East,101,3.0,9.0,47,0.00,,,0.00,meteohub,2013-03-10 18:12:00,
2013-03-10 14:17:00,78.3,56.3,30.05,ESE,119,5.0,9.0,47,0.00,,,0.00,meteohub,2013-03-10 18:17:00,
2013-03-10 14:22:00,78.6,56.1,30.05,ESE,115,5.0,9.0,46,0.00,,,0.00,meteohub,2013-03-10 18:22:00,
2013-03-10 14:27:00,78.6,56.1,30.05,ESE,113,3.0,8.0,46,0.00,,,0.00,meteohub,2013-03-10 18:27:00,
2013-03-10 14:32:00,78.4,55.9,30.05,East,95,8.0,8.0,46,0.00,,,0.00,meteohub,2013-03-10 18:32:00,
2013-03-10 14:37:00,77.7,55.9,30.04,SE,126,6.0,9.0,47,0.00,,,0.00,meteohub,2013-03-10 18:37:00,
2013-03-10 14:42:00,77.7,55.2,30.04,SE,128,3.0,9.0,46,0.00,,,0.00,meteohub,2013-03-10 18:42:00,
2013-03-10 14:47:00,78.3,56.3,30.04,SE,135,5.0,9.0,47,0.00,,,0.00,meteohub,2013-03-10 18:47:00,
2013-03-10 14:52:00,78.6,56.1,30.04,SE,136,2.0,9.0,46,0.00,,,0.00,meteohub,2013-03-10 18:52:00,
2013-03-10 14:57:00,78.8,56.3,30.04,ESE,110,5.0,9.0,46,0.00,,,0.00,meteohub,2013-03-10 18:57:00,
2013-03-10 15:02:00,79.2,56.7,30.04,ESE,122,4.0,9.0,46,0.00,,,0.00,meteohub,2013-03-10 19:02:00,
2013-03-10 15:07:00,79.7,56.5,30.04,East,90,6.0,9.0,45,0.00,,,0.00,meteohub,2013-03-10 19:07:00,
2013-03-10 15:12:00,80.2,56.3,30.04,ESE,109,3.0,8.0,44,0.00,,,0.00,meteohub,2013-03-10 19:12:00,
2013-03-10 15:17:00,79.7,55.9,30.04,East,96,5.0,8.0,44,0.00,,,0.00,meteohub,2013-03-10 19:17:00,
2013-03-10 15:22:00,79.5,56.3,30.04,ESE,113,7.0,9.0,45,0.00,,,0.00,meteohub,2013-03-10 19:22:00,
2013-03-10 15:27:00,79.5,56.3,30.03,ESE,122,2.0,9.0,45,0.00,,,0.00,meteohub,2013-03-10 19:27:00,
2013-03-10 15:32:00,79.7,56.5,30.03,ESE,107,3.0,9.0,45,0.00,,,0.00,meteohub,2013-03-10 19:32:00,
2013-03-10 15:37:00,79.9,55.9,30.03,SSW,196,3.0,8.0,44,0.00,,,0.00,meteohub,2013-03-10 19:37:00,
2013-03-10 15:43:00,80.1,56.8,30.03,ESE,117,3.0,8.0,45,0.00,,,0.00,meteohub,2013-03-10 19:43:00,
2013-03-10 15:48:00,80.1,56.8,30.03,ESE,105,4.0,8.0,45,0.00,,,0.00,meteohub,2013-03-10 19:48:00,
2013-03-10 15:53:00,80.6,56.7,30.03,SE,128,4.0,8.0,44,0.00,,,0.00,meteohub,2013-03-10 19:53:00,
2013-03-10 15:59:00,80.8,56.1,30.03,ESE,109,2.0,8.0,43,0.00,,,0.00,meteohub,2013-03-10 19:59:00,
2013-03-10 16:04:00,80.1,56.1,30.02,East,84,5.0,7.0,44,0.00,,,0.00,meteohub,2013-03-10 20:04:00,
2013-03-10 16:10:00,80.1,56.1,30.02,East,92,7.0,8.0,44,0.00,,,0.00,meteohub,2013-03-10 20:10:00,
2013-03-10 16:15:00,79.9,55.9,30.02,ESE,112,4.0,8.0,44,0.00,,,0.00,meteohub,2013-03-10 20:15:00,
2013-03-10 16:20:00,79.5,56.3,30.02,ESE,111,2.0,8.0,45,0.00,,,0.00,meteohub,2013-03-10 20:20:00,
2013-03-10 16:25:00,79.9,56.7,30.02,SE,136,4.0,7.0,45,0.00,,,0.00,meteohub,2013-03-10 20:25:00,
2013-03-10 16:30:00,80.8,58.1,30.02,South,169,1.0,7.0,46,0.00,,,0.00,meteohub,2013-03-10 20:30:00,
2013-03-10 16:36:00,78.6,56.7,30.02,WSW,246,3.0,7.0,47,0.00,,,0.00,meteohub,2013-03-10 20:36:00,
2013-03-10 16:41:00,77.2,57.0,30.03,WSW,255,1.0,10.0,50,0.00,,,0.00,meteohub,2013-03-10 20:41:00,
2013-03-10 16:47:00,76.5,57.6,30.02,WSW,254,4.0,10.0,52,0.00,,,0.00,meteohub,2013-03-10 20:47:00,
2013-03-10 16:52:00,75.7,57.4,30.02,West,262,5.0,10.0,53,0.00,,,0.00,meteohub,2013-03-10 20:52:00,
2013-03-10 16:57:00,75.7,57.9,30.02,West,275,1.0,10.0,54,0.00,,,0.00,meteohub,2013-03-10 20:57:00,
2013-03-10 17:02:00,75.9,57.6,30.02,West,271,3.0,8.0,53,0.00,,,0.00,meteohub,2013-03-10 21:02:00,
2013-03-10 17:07:00,75.6,57.2,30.02,West,266,4.0,7.0,53,0.00,,,0.00,meteohub,2013-03-10 21:07:00,
2013-03-10 17:13:00,75.7,57.4,30.01,West,263,3.0,8.0,53,0.00,,,0.00,meteohub,2013-03-10 21:13:00,
2013-03-10 17:18:00,75.7,57.9,30.01,West,261,1.0,8.0,54,0.00,,,0.00,meteohub,2013-03-10 21:18:00,
2013-03-10 17:23:00,75.4,57.6,30.01,West,269,4.0,9.0,54,0.00,,,0.00,meteohub,2013-03-10 21:23:00,
2013-03-10 17:28:00,74.5,57.2,30.01,West,260,4.0,9.0,55,0.00,,,0.00,meteohub,2013-03-10 21:28:00,
2013-03-10 17:34:00,73.9,57.2,30.01,West,265,5.0,9.0,56,0.00,,,0.00,meteohub,2013-03-10 21:34:00,
2013-03-10 17:39:00,73.8,57.6,30.01,West,265,4.0,9.0,57,0.00,,,0.00,meteohub,2013-03-10 21:39:00,
2013-03-10 17:44:00,73.8,57.0,30.01,West,261,3.0,9.0,56,0.00,,,0.00,meteohub,2013-03-10 21:44:00,
2013-03-10 17:49:00,73.4,57.2,30.01,West,259,4.0,8.0,57,0.00,,,0.00,meteohub,2013-03-10 21:49:00,
2013-03-10 17:54:00,73.8,57.0,30.01,WSW,258,1.0,8.0,56,0.00,,,0.00,meteohub,2013-03-10 21:54:00,
2013-03-10 17:59:00,73.9,57.7,30.01,WSW,258,4.0,8.0,57,0.00,,,0.00,meteohub,2013-03-10 21:59:00,
2013-03-10 18:05:00,73.2,57.0,30.01,West,260,3.0,8.0,57,0.00,,,0.00,meteohub,2013-03-10 22:05:00,
2013-03-10 18:10:00,73.0,56.8,30.01,West,261,4.0,8.0,57,0.00,,,0.00,meteohub,2013-03-10 22:10:00,
2013-03-10 18:15:00,73.0,56.8,30.01,West,261,4.0,7.0,57,0.00,,,0.00,meteohub,2013-03-10 22:15:00,
2013-03-10 18:20:00,72.9,56.3,30.01,West,270,3.0,7.0,56,0.00,,,0.00,meteohub,2013-03-10 22:20:00,
2013-03-10 18:25:00,72.3,56.7,30.01,West,271,4.0,7.0,58,0.00,,,0.00,meteohub,2013-03-10 22:25:00,
2013-03-10 18:30:00,72.0,56.8,30.01,West,273,2.0,7.0,59,0.00,,,0.00,meteohub,2013-03-10 22:30:00,
2013-03-10 18:36:00,71.4,56.8,30.02,West,273,4.0,6.0,60,0.00,,,0.00,meteohub,2013-03-10 22:36:00,
2013-03-10 18:41:00,70.7,57.6,30.01,West,280,2.0,6.0,63,0.00,,,0.00,meteohub,2013-03-10 22:41:00,
2013-03-10 18:47:00,70.2,57.4,30.02,WNW,292,3.0,6.0,64,0.00,,,0.00,meteohub,2013-03-10 22:47:00,
2013-03-10 18:52:00,69.6,57.4,30.02,WNW,292,5.0,6.0,65,0.00,,,0.00,meteohub,2013-03-10 22:52:00,
2013-03-10 18:57:00,69.3,57.0,30.02,WNW,296,3.0,7.0,65,0.00,,,0.00,meteohub,2013-03-10 22:57:00,
2013-03-10 19:02:00,69.1,57.2,30.03,NW,305,2.0,7.0,66,0.00,,,0.00,meteohub,2013-03-10 23:02:00,
2013-03-10 19:07:00,68.7,57.4,30.03,NW,305,2.0,7.0,67,0.00,,,0.00,meteohub,2013-03-10 23:07:00,
2013-03-10 19:12:00,68.4,57.7,30.03,WNW,300,3.0,7.0,69,0.00,,,0.00,meteohub,2013-03-10 23:12:00,
2013-03-10 19:17:00,67.8,57.7,30.03,NW,311,1.0,6.0,70,0.00,,,0.00,meteohub,2013-03-10 23:17:00,
2013-03-10 19:22:00,67.5,57.4,30.03,NW,308,2.0,6.0,70,0.00,,,0.00,meteohub,2013-03-10 23:22:00,
2013-03-10 19:27:00,66.9,56.8,30.03,West,277,6.0,6.0,70,0.00,,,0.00,meteohub,2013-03-10 23:27:00,
2013-03-10 19:33:00,66.7,57.0,30.03,NW,313,3.0,7.0,71,0.00,,,0.00,meteohub,2013-03-10 23:33:00,
2013-03-10 19:38:00,66.6,56.8,30.03,NW,313,2.0,7.0,71,0.00,,,0.00,meteohub,2013-03-10 23:38:00,
2013-03-10 19:43:00,66.4,57.0,30.04,NW,313,0.0,7.0,72,0.00,,,0.00,meteohub,2013-03-10 23:43:00,
2013-03-10 19:49:00,66.0,57.2,30.04,NW,313,1.0,6.0,73,0.00,,,0.00,meteohub,2013-03-10 23:49:00,
2013-03-10 19:54:00,65.8,57.4,30.04,NW,313,1.0,6.0,74,0.00,,,0.00,meteohub,2013-03-10 23:54:00,
2013-03-10 19:59:00,65.8,58.1,30.04,NW,313,5.0,6.0,76,0.00,,,0.00,meteohub,2013-03-10 23:59:00,
2013-03-10 20:04:00,65.7,58.3,30.04,NW,313,2.0,6.0,77,0.00,,,0.00,meteohub,2013-03-11 00:04:00,
2013-03-10 20:10:00,65.5,58.1,30.04,NW,313,2.0,6.0,77,0.00,,,0.00,meteohub,2013-03-11 00:10:00,
2013-03-10 20:15:00,65.3,57.9,30.04,NW,313,1.0,6.0,77,0.00,,,0.00,meteohub,2013-03-11 00:15:00,
2013-03-10 20:20:00,65.3,57.9,30.05,NW,313,2.0,6.0,77,0.00,,,0.00,meteohub,2013-03-11 00:20:00,
2013-03-10 20:25:00,65.1,57.7,30.05,NW,313,1.0,5.0,77,0.00,,,0.00,meteohub,2013-03-11 00:25:00,
2013-03-10 20:30:00,65.1,57.7,30.05,NW,313,1.0,4.0,77,0.00,,,0.00,meteohub,2013-03-11 00:30:00,
2013-03-10 20:36:00,65.1,57.7,30.04,NW,313,0.0,4.0,77,0.00,,,0.00,meteohub,2013-03-11 00:36:00,
2013-03-10 20:41:00,65.1,57.7,30.05,NW,313,0.0,4.0,77,0.00,,,0.00,meteohub,2013-03-11 00:41:00,
2013-03-10 20:46:00,64.9,57.6,30.05,NW,313,1.0,4.0,77,0.00,,,0.00,meteohub,2013-03-11 00:46:00,
2013-03-10 20:51:00,64.9,57.2,30.05,NW,313,0.0,4.0,76,0.00,,,0.00,meteohub,2013-03-11 00:51:00,
2013-03-10 20:57:00,64.9,57.2,30.05,NW,313,0.0,4.0,76,0.00,,,0.00,meteohub,2013-03-11 00:57:00,
2013-03-10 21:02:00,64.9,57.6,30.05,NW,313,0.0,4.0,77,0.00,,,0.00,meteohub,2013-03-11 01:02:00,
2013-03-10 21:07:00,64.8,57.0,30.05,NW,313,0.0,2.0,76,0.00,,,0.00,meteohub,2013-03-11 01:07:00,
2013-03-10 21:12:00,64.8,57.0,30.05,NW,313,0.0,3.0,76,0.00,,,0.00,meteohub,2013-03-11 01:12:00,
2013-03-10 21:18:00,64.8,57.0,30.06,NW,313,0.0,3.0,76,0.00,,,0.00,meteohub,2013-03-11 01:18:00,
2013-03-10 21:23:00,64.8,57.0,30.06,NW,313,0.0,3.0,76,0.00,,,0.00,meteohub,2013-03-11 01:23:00,
2013-03-10 21:28:00,64.8,57.0,30.06,NW,313,1.0,3.0,76,0.00,,,0.00,meteohub,2013-03-11 01:28:00,
2013-03-10 21:33:00,64.9,57.2,30.06,NW,313,0.0,2.0,76,0.00,,,0.00,meteohub,2013-03-11 01:33:00,
2013-03-10 21:39:00,64.9,56.8,30.06,NW,313,1.0,2.0,75,0.00,,,0.00,meteohub,2013-03-11 01:39:00,
2013-03-10 21:44:00,64.9,56.8,30.06,NW,313,0.0,2.0,75,0.00,,,0.00,meteohub,2013-03-11 01:44:00,
2013-03-10 21:49:00,64.9,56.8,30.06,NW,313,1.0,2.0,75,0.00,,,0.00,meteohub,2013-03-11 01:49:00,
2013-03-10 21:55:00,64.9,56.8,30.06,NW,313,0.0,2.0,75,0.00,,,0.00,meteohub,2013-03-11 01:55:00,
2013-03-10 22:00:00,64.9,56.8,30.07,NW,313,1.0,2.0,75,0.00,,,0.00,meteohub,2013-03-11 02:00:00,
2013-03-10 22:05:00,64.9,56.5,30.07,NW,313,1.0,4.0,74,0.00,,,0.00,meteohub,2013-03-11 02:05:00,
2013-03-10 22:10:00,64.9,56.5,30.07,NW,313,0.0,4.0,74,0.00,,,0.00,meteohub,2013-03-11 02:10:00,
2013-03-10 22:15:00,64.9,56.5,30.07,NW,313,0.0,4.0,74,0.00,,,0.00,meteohub,2013-03-11 02:15:00,
2013-03-10 22:21:00,64.9,56.1,30.07,NW,313,1.0,3.0,73,0.00,,,0.00,meteohub,2013-03-11 02:21:00,
2013-03-10 22:26:00,64.9,56.1,30.07,NW,313,0.0,3.0,73,0.00,,,0.00,meteohub,2013-03-11 02:26:00,
2013-03-10 22:31:00,64.9,56.1,30.07,NW,313,0.0,3.0,73,0.00,,,0.00,meteohub,2013-03-11 02:31:00,
2013-03-10 22:36:00,64.9,56.1,30.07,NW,313,0.0,3.0,73,0.00,,,0.00,meteohub,2013-03-11 02:36:00,
2013-03-10 22:41:00,64.9,56.1,30.07,NW,313,0.0,2.0,73,0.00,,,0.00,meteohub,2013-03-11 02:41:00,
2013-03-10 22:46:00,64.9,56.1,30.07,NW,313,0.0,2.0,73,0.00,,,0.00,meteohub,2013-03-11 02:46:00,
2013-03-10 22:51:00,64.8,55.9,30.07,NW,313,0.0,2.0,73,0.00,,,0.00,meteohub,2013-03-11 02:51:00,
2013-03-10 22:57:00,64.8,55.9,30.07,NW,313,0.0,2.0,73,0.00,,,0.00,meteohub,2013-03-11 02:57:00,
2013-03-10 23:02:00,64.8,55.9,30.07,NW,313,1.0,2.0,73,0.00,,,0.00,meteohub,2013-03-11 03:02:00,
2013-03-10 23:07:00,64.8,55.9,30.06,NW,313,2.0,2.0,73,0.00,,,0.00,meteohub,2013-03-11 03:07:00,
2013-03-10 23:12:00,64.8,56.3,30.06,NW,313,2.0,3.0,74,0.00,,,0.00,meteohub,2013-03-11 03:12:00,
2013-03-10 23:17:00,64.9,56.5,30.07,NW,313,2.0,3.0,74,0.00,,,0.00,meteohub,2013-03-11 03:17:00,
2013-03-10 23:22:00,64.9,56.5,30.07,NW,313,2.0,3.0,74,0.00,,,0.00,meteohub,2013-03-11 03:22:00,
2013-03-10 23:27:00,65.1,56.7,30.07,NW,313,1.0,3.0,74,0.00,,,0.00,meteohub,2013-03-11 03:27:00,
2013-03-10 23:33:00,65.3,57.2,30.07,NW,313,2.0,3.0,75,0.00,,,0.00,meteohub,2013-03-11 03:33:00,
2013-03-10 23:38:00,65.7,57.2,30.07,NW,313,2.0,4.0,74,0.00,,,0.00,meteohub,2013-03-11 03:38:00,
2013-03-10 23:43:00,65.8,57.0,30.07,NW,313,3.0,4.0,73,0.00,,,0.00,meteohub,2013-03-11 03:43:00,
2013-03-10 23:48:00,66.4,57.0,30.06,ESE,112,3.0,4.0,72,0.00,,,0.00,meteohub,2013-03-11 03:48:00,
2013-03-10 23:53:00,66.7,57.4,30.06,ESE,115,5.0,8.0,72,0.00,,,0.00,meteohub,2013-03-11 03:53:00,
2013-03-10 23:59:00,66.7,57.4,30.06,East,99,3.0,8.0,72,0.00,,,0.00,meteohub,2013-03-11 03:59:00,